Location: Gandikunta
(16.3784°N, 80.8378°E)
Time: 22:18:41
(UTC+00:00)

Milstar 3 - Pass Details

Date: 19 May 2025
Orbit: 1098 x 5147 km, 28.2° (Epoch: 18 June)

Event Time Altitude Azimuth Distance (km) Brightness Sun altitude
Exits shadow 20:40:29 50° 331° (NNW) 2,136 4.1 -42.1°
Maximum altitude 20:41:04 50° 341° (NNW) 2,077 4.1 -42.0°
Drops below altitude 10° 20:48:46 10° 57° (ENE) 3,255 5.9 -40.7°
Sets 20:51:14 0° 63° (ENE) 4,061 6.5 -40.3°
